[[{"header":{"parameterUnit":"m.s-1","parameterCategory":1,"la1":30.2992,"la2":30.254,"lo1":-89.0895,"lo2":-89.0443,"dy":0.0025,"dx":0.0025,"nx":19,"ny":19,"refTime":"2026-03-07T03:00:00:Z","depth":0,"parameterNumber":2,"parameterNumberName":"U-component_of_WINDS"},"data":[0,0,0,-1.1835,-1.1836,-1.1832,-1.1832,-1.1839,-1.1839,0,0,0,0,0,0,0,0,0,0,0,-1.1844,-1.1844,-1.1835,-1.1836,-1.1832,-1.1832,-1.1839,-1.1839,0,0,0,0,0,0,0,0,0,0,0,-1.1843,-1.1844,-1.1844,-1.1836,-1.1832,-1.1832,-1.1839,-1.1837,0,0,0,0,0,0,0,0,0,0,-1.1839,-1.1853,-1.1844,-1.1844,-1.1836,-1.1832,-1.1832,-1.1837,-1.1838,-1.1846,0,-1.1855,0,-1.1847,-1.184,-1.184,0,0,0,-1.183,-1.1853,-1.1846,-1.1844,-1.1836,-1.1832,-1.1832,-1.1837,-1.1838,-1.1846,-1.1855,-1.1855,-1.1847,-1.184,-1.1841,-1.1907,-1.1908,0,0,-1.183,-1.1847,-1.1846,-1.1846,-1.1848,-1.1832,-1.1832,-1.1837,-1.1848,-1.1855,-1.1855,-1.1847,-1.1841,-1.1841,-1.1907,-1.1907,0,0,0,-1.1835,-1.1847,-1.1839,-1.1846,-1.1845,-1.1832,-1.1832,-1.1847,-1.1843,-1.1855,-1.1848,-1.1841,-1.1841,-1.1906,-1.1907,-1.1952,0,0,0,-1.1834,-1.1849,-1.184,-1.185,-1.1845,-1.1846,-1.1842,-1.1843,-1.1843,-1.1847,-1.1841,-1.1841,-1.1905,-1.1906,-1.1949,-1.1971,0,0,0,-1.1841,-1.185,-1.1852,-1.185,-1.1849,-1.1846,-1.1842,-1.1843,-1.1839,-1.184,-1.1841,-1.1905,-1.1906,-1.1947,-1.1967,-1.1995,0,0,0,-1.1853,-1.1891,-1.1853,-1.1892,-1.185,-1.1873,-1.1842,-1.1858,-1.1864,-1.1841,-1.1905,-1.1907,-1.1946,-1.1965,-1.1993,-1.2023,-1.2036,0,0,-1.191,-1.1898,-1.192,-1.1886,-1.1921,-1.1872,-1.1914,-1.1903,-1.1888,-1.1902,-1.1903,-1.195,-1.1967,-1.1995,-1.2104,-1.2115,0,0,0,-1.1943,-1.196,-1.1965,-1.1972,-1.1966,-1.1963,-1.1945,-1.1942,-1.1953,-1.1898,-1.1966,-1.1976,-1.1991,-1.2005,-1.2014,-1.2028,-1.1913,-1.1913,-1.1913,-1.2047,-1.2026,-1.2062,-1.2041,-1.2049,-1.2031,-1.2035,-1.2028,-1.2003,-1.202,-1.2024,-1.2093,-1.211,-1.2117,-1.2131,-1.2037,-1.2037,-1.2037,-1.2037,-1.2129,-1.215,-1.2118,-1.2141,-1.212,-1.2139,-1.2123,-1.2106,-1.2121,-1.2087,-1.21,-1.2067,-1.2129,-1.2141,-1.204,-1.204,-1.2039,-1.2039,-1.2039,-1.2196,-1.2203,-1.2198,-1.2208,-1.2218,-1.2195,-1.2213,-1.2191,-1.2171,-1.2184,-1.2188,-1.2187,-1.2185,-1.2187,-1.2187,-1.2187,-1.2187,-1.2188,-1.2188,-1.2269,-1.2262,-1.2279,-1.2277,-1.228,-1.2281,-1.2264,-1.2266,-1.2264,-1.2247,-1.2247,-1.2223,-1.2139,-1.2119,-1.2191,-1.2191,-1.219,-1.219,-1.219,-1.2363,-1.2339,-1.2365,-1.2368,-1.2365,-1.2378,-1.235,-1.2357,-1.2356,-1.2365,-1.2338,-1.2279,-1.2265,-1.2258,-1.2242,-1.2341,-1.2341,-1.2341,-1.2341,-1.2421,-1.2412,-1.2436,-1.2443,-1.2447,-1.2425,-1.2457,-1.2445,-1.2428,-1.2427,-1.2409,-1.2385,-1.2378,-1.2369,-1.2359,-1.2343,-1.2467,-1.2467,-1.2467,-1.2479,-1.247,-1.2502,-1.2485,-1.2481,-1.2479,-1.2509,-1.2519,-1.2494,-1.2472,-1.2425,-1.242,-1.2381,-1.2369,-1.2347,-1.2332,-1.2304,0,0]},{"header":{"parameterUnit":"m.s-1","parameterCategory":1,"la1":30.2992,"la2":30.254,"lo1":-89.0895,"lo2":-89.0443,"dy":0.0025,"dx":0.0025,"nx":19,"ny":19,"refTime":"2026-03-07T03:00:00:Z","depth":0,"parameterNumber":3,"parameterNumberName":"V-component_of_WINDS"},"data":[0,0,0,2.0602,2.0604,2.0702,2.0703,2.0839,2.084,0,0,0,0,0,0,0,0,0,0,0,2.0576,2.0577,2.0601,2.0604,2.0702,2.0703,2.0839,2.084,0,0,0,0,0,0,0,0,0,0,0,2.0576,2.0577,2.0578,2.0604,2.0702,2.0703,2.0838,2.0761,0,0,0,0,0,0,0,0,0,0,2.0664,2.0644,2.0577,2.0578,2.0605,2.0702,2.0703,2.0757,2.0766,2.0798,0,2.0826,0,2.0835,2.085,2.085,0,0,0,2.0601,2.0636,2.0659,2.0579,2.0606,2.0702,2.0657,2.0762,2.0772,2.081,2.0828,2.0833,2.0838,2.0851,2.0851,2.1045,2.1046,0,0,2.0596,2.0596,2.0652,2.0666,2.0649,2.0654,2.066,2.0768,2.0788,2.0828,2.0836,2.084,2.0852,2.0853,2.1044,2.1046,0,0,0,2.0582,2.0593,2.0613,2.066,2.0677,2.0657,2.0664,2.0783,2.079,2.0837,2.0841,2.0852,2.0854,2.1043,2.1045,2.1099,0,0,0,2.0579,2.0585,2.0611,2.0612,2.0676,2.0731,2.0678,2.0782,2.0794,2.0841,2.0853,2.0856,2.1042,2.1044,2.1095,2.1125,0,0,0,2.0569,2.0583,2.0599,2.0612,2.0654,2.0729,2.0742,2.0785,2.0797,2.085,2.0856,2.1041,2.1044,2.1091,2.1119,2.118,0,0,0,2.0558,2.0643,2.06,2.0697,2.0653,2.0761,2.0741,2.0821,2.0873,2.0853,2.1042,2.1045,2.109,2.1116,2.1176,2.1234,2.1256,0,0,2.0666,2.0656,2.0714,2.0677,2.0793,2.0745,2.087,2.0916,2.0921,2.1004,2.1009,2.1096,2.1119,2.1179,2.1378,2.1396,0,0,0,2.0748,2.079,2.082,2.087,2.0907,2.0944,2.0971,2.0989,2.106,2.0963,2.1132,2.1146,2.1181,2.1209,2.1225,2.1257,2.1056,2.1056,2.1056,2.0903,2.0905,2.1002,2.1016,2.1065,2.1094,2.1134,2.1164,2.1149,2.119,2.1216,2.1336,2.1368,2.138,2.1414,2.1243,2.1243,2.1244,2.1244,2.1065,2.1126,2.1108,2.1195,2.1198,2.1271,2.1304,2.1292,2.1364,2.1316,2.1347,2.1298,2.14,2.143,2.1248,2.1247,2.1247,2.1246,2.1246,2.117,2.12,2.122,2.1295,2.1353,2.1364,2.1435,2.1433,2.1432,2.1463,2.1494,2.1493,2.1496,2.1477,2.1477,2.1478,2.1478,2.1479,2.1479,2.1273,2.1294,2.1353,2.1402,2.1436,2.148,2.1512,2.1546,2.1584,2.1578,2.1578,2.1565,2.1408,2.1371,2.1485,2.1484,2.1483,2.1483,2.1482,2.1443,2.1405,2.1496,2.153,2.159,2.1651,2.1647,2.1718,2.1746,2.1782,2.1761,2.1644,2.1634,2.1622,2.1592,2.1757,2.1757,2.1757,2.1757,2.1535,2.1529,2.1625,2.168,2.1734,2.1742,2.185,2.1877,2.1899,2.1917,2.1892,2.1851,2.1838,2.1837,2.182,2.1792,2.2004,2.2004,2.2004,2.1642,2.1642,2.1733,2.1753,2.1801,2.1843,2.1946,2.2014,2.203,2.2015,2.1933,2.1923,2.1856,2.1833,2.1818,2.1792,2.1741,0,0]}]]